Location: Cottbus
(51.7000°N, 14.3000°E)
Time: 17:02:28
(UTC+01:00)

ISS - Pass Details

Date: 02 February 2019
Orbit: 403 x 411 km, 51.6° (Epoch: 20 February)

Event Time Altitude Azimuth Distance (km) Brightness Sun altitude
Rises 19:40:27 0° 283° (WNW) 2,341 1.4 -26.0°
Reaches altitude 10° 19:42:35 10° 277° (W) 1,479 0.0 -26.3°
Enters shadow 19:44:10 24° 264° (W) 893 -1.5 -26.6°
